Regional Weather Roundup
Issued by NWS

Home | Current Version | Previous Version | Text Only | Print | Product List | Glossary On
Versions: 1 2 3 4 5 6 7 8 9 10 11 12 13 14 15 16 17 18 19 20 21 22 23 24 25 26 27 28 29 30 31 32 33 34 35 36 37 38 39 40 41 42 43 44 45 46 47 48 49 50
000
ASUS43 KDMX 291007
RWRIA

WEATHER ROUNDUP FOR IOWA
NATIONAL WEATHER SERVICE DES MOINES IA
500 AM CDT TUE JUL 29 2014

NOTE: "FAIR" INDICATES FEW OR NO CLOUDS BELOW 12,000 FEET WITH NO
SIGNIFICANT WEATHER AND/OR OBSTRUCTIONS TO VISIBILITY.

* - THESE STATIONS ARE NOT NWS STATIONS...THUS NOT UNDER NWS
QUALITY CONTROL.  THEY ALSO DO NOT REPORT WEATHER SUCH
AS PRECIPITATION OR FOG.

IAZ001>003-012>014-020>022-031>034-043>046-291100-
   NORTHWEST IOWA

CITY           SKY/WX    TMP DP  RH WIND       PRES   REMARKS
CARROLL *      PTCLDY    52  52 100 CALM      30.18S
CHEROKEE *     CLEAR     50  50 100 CALM      30.19F FOG
DENISON *      CLEAR     52  52 100 CALM      30.17S
LE MARS *      FOG       50  50 100 CALM      30.21R VSB 1/2
ORANGE CITY *  CLEAR     55  52  88 CALM      30.20S
SHELDON *      CLEAR     48  46  93 CALM      30.19F
SIOUX CITY     CLEAR     54  53  97 W3        30.20S
SPENCER        CLEAR     49  47  93 W7        30.19S
STORM LAKE *   CLEAR     54  54 100 N6        30.20S
$$

IAZ055>058-069>071-079>083-090>094-291100-
   SOUTHWEST IOWA

CITY           SKY/WX    TMP DP  RH WIND       PRES   REMARKS
ATLANTIC *     PTCLDY    54  54 100 CALM      30.18R FOG
AUDUBON *      CLEAR     54  52  94 CALM      30.19S
CLARINDA *     CLEAR     54  54 100 CALM      30.19R
COUNCIL BLFS *   N/A     57  57 100 N5        30.17S
CRESTON *      CLEAR     57  57 100 N6        30.17S
HARLAN  *      CLEAR     54  54 100 CALM      30.22R
LAMONI         CLEAR     57  56  96 NW3       30.16S
RED OAK *      CLEAR     54  54 100 N3        30.18S
SHENANDOAH *   FOG       54  54 100 CALM      30.18S VSB 1/2
$$

IAZ047>049-059>061-072>074-084-291100-
   CENTRAL IOWA

CITY           SKY/WX    TMP DP  RH WIND       PRES   REMARKS
AMES           CLEAR     55  53  93 NW3       30.16S
ANKENY *       CLEAR     55  54  94 CALM      30.16S
CHARITON *     CLEAR     57  55  94 NW5       30.16S
DES MOINES     CLEAR     59  55  87 NW7       30.16R
GRINNELL*      CLEAR     55  54  94 NW5       30.16R
KNOXVILLE *    CLEAR     57  55  94 NW7       30.14S
MARSHALLTOWN   CLEAR     55  53  93 W6        30.14S
PELLA *        CLEAR     55  55 100 CALM      30.16S
PERRY *          N/A     54  54 100 W6        30.17S
$$

IAZ004>006-015-016-023>025-035-036-291100-
   NORTH CENTRAL IOWA

CITY           SKY/WX    TMP DP  RH WIND       PRES   REMARKS
ALGONA *       CLEAR     55  54  94 NW6       30.17S
CLARION *      CLEAR     52  52 100 CALM      30.16S
ESTHERVILLE    CLEAR     53  51  93 NW8       30.18S
FORT DODGE *   CLEAR     55  52  88 NW5       30.18S
MASON CITY     CLEAR     54  52  93 NW8       30.16S
FOREST CITY *  CLEAR     54  54 100 NE5       30.16S
IOWA FALLS *     N/A     54  52  94 W5        30.16S
$$

IAZ007>011-017>019-026>030-037>042-050>054-066-291100-
   NORTHEAST IOWA

CITY           SKY/WX    TMP DP  RH WIND       PRES   REMARKS
CEDAR RAPIDS   CLEAR     52  50  93 NW8       30.12R
CHARLES CITY * CLEAR     54  52  94 NW5       30.14S
CLINTON *      CLEAR     52  48  87 W7        30.12S
DECORAH *      CLEAR     54  54 100 CALM      30.11R
DUBUQUE        CLEAR     54  51  90 W3        30.10S
MONTICELLO *   CLEAR     50  50 100 CALM      30.11S
OELWEIN *      CLEAR     54  52  94 W6        30.13S
WATERLOO       CLEAR     55  53  93 W5        30.12S
$$

IAZ064-065-067-068-078-291100-
   EAST CENTRAL IOWA

CITY           SKY/WX    TMP DP  RH WIND       PRES   REMARKS
DAVENPORT      CLEAR     51  49  92 W7        30.11S
IOWA CITY      CLEAR     56  54  93 SW3       30.13S
MT. PLEASANT * CLEAR     59  57  94 CALM      30.13S
MUSCATINE *    CLEAR     57  55  94 CALM      30.12S
QUAD CITIES    CLEAR     53  50  89 SW3       30.10S
$$

IAZ062-063-075>077-085>089-095>099-291100-
   SOUTHEAST IOWA

CITY           SKY/WX    TMP DP  RH WIND       PRES   REMARKS
BURLINGTON     PTCLDY    57  56  96 NW5       30.12S
FAIRFIELD *    CLEAR     55  54  94 W5        30.14S
FORT MADISON * PTCLDY    59  57  94 W5        30.13S
KEOKUK *       CLEAR     57  55  94 W5        30.13R
OSKALOOSA *      N/A     55  54  94 W6        30.15R
CENTERVILLE *  CLEAR     54  54 100 NW3       30.17S
OTTUMWA        CLEAR     56  54  93 NW7       30.14S
WASHINGTON *   CLEAR     55  55 100 NW6       30.13S
$$

ABBREVIATIONS USED IN REMARKS
   TC - TEMPERATURES IN CELSIUS
  WCI - WIND CHILL INDEX
   HX - HEAT INDEX
  VSB - VISIBILITY
$$




USA.gov is the U.S. government's official web portal to all federal, state and local government web resources and services.